User: anonymous   Login
Location: Unspecified
(0.0000°N, 0.0000°E)
Time: 07:23:02
(UTC+00:00)
Language:

DNEPR OBJECT S - Orbit

View from above orbital plane
View from above orbital plane
View from above satellite
View from above satellite

Ground track
Ground track

The orbit data is extracted from the following two-line orbital elements,

1 39432U 13066S   18015.13843399  .00000281  00000-0  34569-4 0  9994
2 39432  97.6217  73.7874 0031038 239.8911 119.9229 14.89992045225439
Epoch (UTC): 15 January 2018 03:19:20
Eccentricity: 0.0031038
inclination: 97.6217°
perigee height: 576 km
apogee height: 619 km
right ascension of ascending node: 73.7874°
argument of perigee: 239.8911°
revolutions per day: 14.89992045
mean anomaly at epoch: 119.9229°
orbit number at epoch: 22543

The dashed part of the orbit path shows where the satellite is in the earth's shadow,  

DLR